Flag for Germany Weather past 2 weeks in Marburg, Hesse, Germany

Now
67 °F

Sunny.


Feels Like: 67 °F
Forecast: 60 / 81 °F
Wind: 3 mph from Northeast

Location: Giessen

Current Time: Aug 3, 2015 at 9:49:39 AM

Latest Report: Aug 3, 2015 at 9:00 AM


Visibility: 19 mi

Pressure: 30.05 "Hg

Humidity: 59%

Dew point: 52 °F

Location of MarburgLocation

Historic Weather in Marburg — Graph

°F

Marburg temperature yesterday

Maximum temperature yesterday: 83 °F (at 5:00 PM)
Minimum temperature yesterday: 54 °F (at 6:00 AM)
Average temperature yesterday: 70 °F

Past Weeks' High & Low Weather Summary

 TemperatureHumidityPressure
High88 °F (Jul 22, 3:00 PM)98% (Jul 19, 9:00 AM)30.14 "Hg (Jul 19, 9:00 AM)
Low48 °F (Jul 30, 4:00 AM)26% (Aug 1, 5:00 PM)29.59 "Hg (Jul 27, 10:00 AM)
Average66 °F65%29.90 "Hg
* Reported Jul 19 9:00 AM — Aug 3 9:00 AM, Marburg, Weather by CustomWeather, © 2015

Note: Actual official high and low records may vary slightly from our data, if they occured in-between our weather recording intervals... More about our weather records

Advertising

Marburg weather history for previous 24 hours

 ConditionsComfort  
Time TempWeatherWind HumidityBarometerVisibility
9:00 AM
Mon, Aug 3
67 °FSunny.3 mph59%30.05 "Hg19 mi
8:00 AM61 °FScattered clouds.3 mph72%30.05 "Hg19 mi
7:00 AM58 °FPartly sunny.1 mph78%30.06 "Hg16 mi
6:00 AM57 °FPartly sunny.2 mph80%30.06 "Hg17 mi
5:00 AM58 °FPassing clouds.3 mph79%30.05 "Hg17 mi
4:00 AM58 °FClear.2 mph77%30.06 "Hg17 mi
3:00 AM62 °FPassing clouds.2 mph66%30.06 "Hg25 mi
2:00 AM64 °FOvercast.2 mph63%30.06 "Hg25 mi
1:00 AM67 °FPassing clouds.2 mph53%30.06 "Hg28 mi
11:00 PM
Sun, Aug 2
68 °FPassing clouds.2 mph55%30.05 "Hg28 mi
10:00 PM71 °FOvercast.2 mph48%30.05 "Hg31 mi
9:00 PM76 °FOvercast.3 mph39%30.03 "Hg34 mi
8:00 PM80 °FOvercast.3 mph35%30.03 "Hg37 mi
7:00 PM81 °FPartly sunny.3 mph31%30.03 "Hg43 mi
6:00 PM83 °FSunny.3 mph29%30.03 "Hg28 mi
5:00 PM83 °FPassing clouds.1 mph28%30.04 "Hg31 mi
4:00 PM80 °FSunny.3 mph29%30.06 "Hg25 mi
3:00 PM80 °FPartly sunny.2 mph31%30.08 "Hg25 mi
2:00 PM80 °FScattered clouds.2 mph34%30.09 "Hg31 mi
1:00 PM78 °FScattered clouds.3 mph37%30.10 "Hg25 mi
12:00 PM74 °FSunny.5 mph43%30.11 "Hg19 mi
11:00 AM72 °FPassing clouds.6 mph46%30.11 "Hg28 mi
10:00 AM69 °FOvercast.6 mph50%30.11 "Hg19 mi
9:00 AM64 °FScattered clouds.1 mph65%30.11 "Hg25 mi
Weather by CustomWeather, © 2015

See weather overviewHow to use our weather pages